Flag for France Weather past 2 weeks in Boulogne-Billancourt, France

46 °F

Partly sunny.

Feels Like: 40 °F
Forecast: 48 / 54 °F
Wind: 14 mph from Southwest

Location: Paris-Orly

Current Time: Nov 28, 2015 at 4:29:43 PM

Latest Report: Nov 28, 2015 at 4:00 PM

Visibility: N/A

Pressure: 30.12 "Hg

Humidity: 66%

Dew point: 36 °F

Location of Boulogne-BillancourtLocation

Historic Weather in Boulogne-Billancourt — Graph


Boulogne-Billancourt temperature yesterday

Maximum temperature yesterday: 41 °F (at 6:30 PM)
Minimum temperature yesterday: 32 °F (at 1:00 AM)
Average temperature yesterday: 36 °F

Past Weeks' High & Low Weather Summary

High61 °F (Nov 15, 12:30 PM)100% (Nov 17, 7:30 AM)30.48 "Hg (Nov 17, 7:30 AM)
Low32 °F (Nov 23, 12:00 AM)57% (Nov 22, 2:30 PM)29.56 "Hg (Nov 21, 4:30 AM)
Average47 °F85%30.04 "Hg
* Reported Nov 13 3:00 PM — Nov 28 3:00 PM, Boulogne-Billancourt, Weather by CustomWeather, © 2015

Note: Actual official high and low records may vary slightly from our data, if they occured in-between our weather recording intervals... More about our weather records


Boulogne-Billancourt weather history for previous 24 hours

Time TempWeatherWind HumidityBarometerVisibility
3:00 PM
Sat, Nov 28
48 °FPartly sunny.13 mph62%30.12 "HgN/A
2:30 PM50 °FScattered clouds.13 mph62%30.12 "HgN/A
2:00 PM50 °FPassing clouds.12 mph67%30.12 "HgN/A
1:30 PM48 °FPassing clouds.12 mph66%30.12 "HgN/A
1:00 PM48 °FSunny.10 mph66%30.15 "Hg10 mi
12:30 PM46 °FSunny.10 mph66%30.15 "Hg10 mi
12:00 PM46 °FSunny.12 mph71%30.15 "Hg10 mi
11:30 AM46 °FSunny.9 mph71%30.15 "Hg10 mi
11:00 AM45 °FSunny.9 mph76%30.12 "Hg10 mi
10:30 AM43 °FSunny.10 mph81%30.12 "Hg10 mi
10:00 AM41 °FPassing clouds.9 mph87%30.12 "HgN/A
9:30 AM39 °FPassing clouds.7 mph93%30.12 "HgN/A
9:00 AM36 °FPassing clouds.6 mph100%30.09 "HgN/A
7:30 AM37 °FPassing clouds.7 mph93%30.07 "HgN/A
7:00 AM39 °FPassing clouds.7 mph87%30.04 "HgN/A
6:30 AM43 °FPassing clouds.6 mph81%30.01 "HgN/A
5:30 AM45 °FPassing clouds.6 mph81%29.98 "HgN/A
5:00 AM45 °FPassing clouds.8 mph81%29.95 "HgN/A
4:30 AM45 °FPassing clouds.9 mph87%29.95 "HgN/A
4:00 AM46 °FPassing clouds.10 mph82%29.92 "HgN/A
3:30 AM45 °FPassing clouds.9 mph93%29.92 "HgN/A
3:00 AM46 °FPassing clouds.9 mph87%29.92 "HgN/A
2:30 AM45 °FPassing clouds.7 mph100%29.89 "HgN/A
1:00 AM43 °FDrizzle. Fog.9 mph100%29.89 "Hg3 mi
12:30 AM43 °FDrizzle. Fog.9 mph100%29.86 "Hg3 mi
12:00 AM43 °FDrizzle. Fog.10 mph93%29.86 "Hg3 mi
11:30 PM
Fri, Nov 27
41 °FDrizzle. Fog.9 mph100%29.86 "Hg3 mi
11:00 PM41 °FPassing clouds.10 mph100%29.89 "Hg4 mi
10:30 PM41 °FDrizzle. Fog.10 mph100%29.89 "Hg3 mi
10:00 PM41 °FDrizzle. Fog.9 mph93%29.89 "Hg3 mi
9:30 PM41 °FDrizzle. Fog.10 mph93%29.92 "Hg3 mi
9:00 PM41 °FDrizzle. Fog.12 mph93%29.92 "Hg3 mi
8:30 PM41 °FDrizzle. Fog.12 mph93%29.92 "Hg3 mi
8:00 PM41 °FDrizzle. Fog.12 mph93%29.92 "Hg3 mi
7:30 PM41 °FPassing clouds.10 mph93%29.95 "Hg4 mi
7:00 PM41 °FPassing clouds.10 mph93%29.95 "Hg4 mi
6:30 PM41 °FPartly cloudy.10 mph93%29.95 "Hg5 mi
6:00 PM39 °FPassing clouds.9 mph100%29.95 "HgN/A
5:30 PM39 °FPassing clouds.8 mph100%29.98 "HgN/A
5:00 PM39 °FPassing clouds.7 mph100%29.98 "HgN/A
4:30 PM39 °FPartly sunny.8 mph100%29.98 "Hg4 mi
4:00 PM39 °FPartly sunny.9 mph100%29.98 "Hg4 mi
Weather by CustomWeather, © 2015

See weather overviewHow to use our weather pages